Weather History for Joplin, MO

Change the Weather History Date:

Thursday, March 28, 2013

  Actual Average Record
Temperature  
Mean Temperature 58 °F 53 °F  
Max Temperature 70 °F 64 °F 87 °F (1963)
Min Temperature 45 °F 41 °F 25 °F (1948)
Degree Days  
Heating Degree Days 7 13  
Month to date heating degree days 639 471  
Since 1 July heating degree days 3755 3725  
Cooling Degree Days 0 1  
Month to date cooling degree days 0 2  
Year to date cooling degree days 1 3  
Growing Degree Days 8 (Base 50)    
Moisture  
Dew Point 39 °F    
Average Humidity 54    
Maximum Humidity 67    
Minimum Humidity 40    
Precipitation  
Precipitation T in 0.12 in 2.10 in (1988)
Month to date precipitation 1.66 3.04  
Year to date precipitation 6.81 7.39  
Snow  
Snow 0.00 in - - ()
Month to date snowfall T  
Snow Depth 0.00 in    
Sea Level Pressure  
Sea Level Pressure 30.15 in    
Wind  
Wind Speed 8 mph (South)    
Max Wind Speed 18 mph    
Max Gust Speed 23 mph    
Visibility 10 miles    
Events      
T = Trace of Precipitation, MM = Missing Value Source: NWS Daily Summary

Daily Weather History Graph

Daily Weather History Graph

Search for Another Location

Airport:

Trip Planner

Search our weather history database for the weather conditions in past years. The results will help you decide how hot, cold, wet, or windy it might be!

Date:

Astronomy

Mar. 28, 2013 Rise Set
Actual Time 7:09 AM CDT 7:37 PM CDT
Civil Twilight 6:43 AM CDT 8:03 PM CDT
Nautical Twilight 6:12 AM CDT 8:34 PM CDT
Astronomical Twilight 5:41 AM CDT 9:05 PM CDT
Moon 9:26 PM CDT (3/28) 7:40 AM CDT (3/28)
Length of Visible Light 13h 20m
Length of Day
12h 28m
Full, 98% of the Moon is Illuminated
Mar 28
Full
Apr 2
Last Quarter
Apr 10
New
Apr 18
First Quarter
Apr 25
Full

Hourly Weather History & Observations

Time (CDT) Temp. Windchill Dew Point Humidity Pressure Visibility Wind Dir Wind Speed Gust Speed Precip Events Conditions
12:53 AM 48.9 °F - 30.0 °F 48% 30.19 in 10.0 mi SE 8.1 mph - N/A   Overcast
1:53 AM 48.9 °F - 30.0 °F 48% 30.18 in 9.0 mi SE 10.4 mph - N/A   Overcast
2:53 AM 48.0 °F - 30.0 °F 50% 30.17 in 8.0 mi SE 4.6 mph - N/A   Overcast
3:53 AM 46.0 °F 43.1 °F 30.9 °F 56% 30.17 in 8.0 mi ESE 5.8 mph - N/A   Overcast
4:53 AM 46.0 °F 43.1 °F 30.9 °F 56% 30.17 in 8.0 mi ESE 5.8 mph - N/A   Overcast
5:53 AM 46.0 °F 43.1 °F 32.0 °F 58% 30.17 in 10.0 mi ESE 5.8 mph - N/A   Overcast
6:53 AM 46.9 °F - 30.0 °F 52% 30.17 in 10.0 mi Calm Calm - N/A   Mostly Cloudy
7:53 AM 48.0 °F - 30.0 °F 50% 30.19 in 10.0 mi SSE 5.8 mph - N/A   Clear
8:53 AM 53.1 °F - 30.9 °F 43% 30.19 in 10.0 mi South 10.4 mph - N/A   Scattered Clouds
9:53 AM 59.0 °F - 36.0 °F 42% 30.19 in 10.0 mi SSW 13.8 mph 19.6 mph N/A   Clear
10:53 AM 61.0 °F - 39.0 °F 44% 30.19 in 10.0 mi SSW 12.7 mph - N/A   Clear
11:53 AM 62.1 °F - 41.0 °F 46% 30.19 in 10.0 mi WSW 18.4 mph - N/A   Clear
12:53 PM 66.0 °F - 43.0 °F 43% 30.17 in 10.0 mi SSW 10.4 mph - N/A   Clear
1:53 PM 66.9 °F - 45.0 °F 45% 30.15 in 10.0 mi South 9.2 mph 19.6 mph N/A   Clear
2:53 PM 68.0 °F - 46.0 °F 45% 30.14 in 10.0 mi SSW 9.2 mph - N/A   Clear
3:53 PM 69.1 °F - 46.0 °F 44% 30.11 in 10.0 mi SSW 15.0 mph 19.6 mph N/A   Clear
4:53 PM 69.1 °F - 46.0 °F 44% 30.09 in 10.0 mi SW 13.8 mph - N/A   Partly Cloudy
5:53 PM 66.9 °F - 46.9 °F 49% 30.10 in 10.0 mi WSW 6.9 mph - N/A   Scattered Clouds
6:53 PM 64.9 °F - 46.9 °F 52% 30.11 in 10.0 mi SSW 6.9 mph - N/A   Partly Cloudy
7:53 PM 63.0 °F - 46.0 °F 54% 30.12 in 10.0 mi SE 3.5 mph - N/A   Scattered Clouds
8:53 PM 60.1 °F - 46.0 °F 60% 30.13 in 10.0 mi ESE 5.8 mph - N/A   Clear
9:53 PM 62.1 °F - 45.0 °F 53% 30.14 in 10.0 mi SE 5.8 mph - N/A   Overcast
10:53 PM 57.9 °F - 46.0 °F 65% 30.13 in 10.0 mi SE 3.5 mph - 0.00 in   Partly Cloudy
11:53 PM 57.0 °F - 46.0 °F 67% 30.12 in 10.0 mi South 9.2 mph - N/A   Clear